SWA3524 KOAK-KAUS

Flight info

Callsign SWA3524
Flight time N/A
Altitude 37000
Route OAK6 OAK DCT SYRAH Q128 JSICA DCT KITTN DCT BERYL DCT PGA DCT ABQ DCT BGS DCT UCOKA LAIKS4
Aircraft B738/M-SADE2E3GIJ4RWZ/LB1D1

Departure

Time 2026-04-30 12:53
Airport San Francisco Bay Oakland International Airport (KOAK)

Arrival

Time N/A
Airport Austin Bergstrom International Airport (KAUS)
Time Latitude Longitude Altitude Speed Heading
2026-04-30 12:43 37.71152 -122.21432 8 ft 0 kts 306°
2026-04-30 12:47 37.71148 -122.21424 8 ft 4 kts 306°
2026-04-30 12:47 37.71132 -122.21397 9 ft 4 kts 300°
2026-04-30 12:47 37.71124 -122.21370 11 ft 4 kts 242°
2026-04-30 12:47 37.71127 -122.21364 10 ft 1 kts 204°
2026-04-30 12:49 37.71126 -122.21365 10 ft 1 kts 204°
2026-04-30 12:49 37.71085 -122.21392 9 ft 13 kts 212°
2026-04-30 12:50 37.70986 -122.21485 9 ft 21 kts 217°
2026-04-30 12:50 37.70872 -122.21594 8 ft 20 kts 217°
2026-04-30 12:50 37.70764 -122.21705 8 ft 20 kts 220°
2026-04-30 12:50 37.70650 -122.21778 9 ft 19 kts 166°
2026-04-30 12:51 37.70557 -122.21662 8 ft 20 kts 129°
2026-04-30 12:51 37.70467 -122.21523 8 ft 20 kts 129°
2026-04-30 12:51 37.70368 -122.21400 8 ft 20 kts 151°
2026-04-30 12:51 37.70239 -122.21354 8 ft 19 kts 180°
2026-04-30 12:52 37.70169 -122.21458 8 ft 14 kts 294°
2026-04-30 12:52 37.70255 -122.21590 7 ft 37 kts 310°
2026-04-30 12:52 37.70588 -122.22092 9 ft 109 kts 310°
2026-04-30 12:52 37.71197 -122.23020 129 ft 154 kts 309°
2026-04-30 12:53 37.71868 -122.24085 785 ft 162 kts 308°
2026-04-30 12:53 37.72548 -122.25286 1381 ft 174 kts 300°
2026-04-30 12:53 37.73285 -122.26650 1605 ft 201 kts 311°
2026-04-30 12:53 37.74593 -122.27459 1788 ft 226 kts 353°
2026-04-30 12:54 37.76172 -122.27020 2015 ft 246 kts 29°
2026-04-30 12:54 37.77381 -122.25410 2337 ft 263 kts 63°
2026-04-30 12:54 37.77931 -122.23188 3074 ft 266 kts 75°
2026-04-30 12:54 37.78345 -122.20902 3807 ft 268 kts 76°
2026-04-30 12:55 37.78744 -122.18607 4608 ft 267 kts 76°
2026-04-30 12:55 37.79147 -122.16315 5373 ft 268 kts 77°
2026-04-30 12:55 37.79563 -122.14005 6082 ft 271 kts 76°
2026-04-30 12:55 37.79989 -122.11682 6835 ft 272 kts 76°
2026-04-30 12:56 37.80426 -122.09336 7480 ft 277 kts 76°
2026-04-30 12:56 37.80876 -122.06949 8166 ft 281 kts 76°
2026-04-30 12:56 37.81332 -122.04541 8950 ft 283 kts 76°
2026-04-30 12:56 37.81798 -122.02097 9632 ft 289 kts 77°
2026-04-30 12:57 37.82274 -121.99604 10303 ft 295 kts 76°
2026-04-30 12:57 37.82768 -121.97028 10537 ft 317 kts 76°
2026-04-30 12:57 37.83306 -121.94223 10703 ft 339 kts 76°
2026-04-30 12:57 37.83879 -121.91236 10945 ft 357 kts 75°
2026-04-30 12:58 37.84471 -121.88148 11482 ft 364 kts 76°
2026-04-30 12:58 37.85068 -121.85026 12220 ft 365 kts 74°
2026-04-30 12:58 37.85666 -121.81897 12931 ft 368 kts 75°
2026-04-30 12:58 37.86271 -121.78730 13638 ft 372 kts 74°
2026-04-30 12:59 37.86881 -121.75531 14280 ft 376 kts 74°
2026-04-30 12:59 37.87498 -121.72286 14883 ft 381 kts 74°
2026-04-30 12:59 37.88122 -121.69007 15522 ft 385 kts 73°
2026-04-30 12:59 37.88749 -121.65697 16180 ft 389 kts 73°
2026-04-30 13:00 37.89382 -121.62354 16755 ft 393 kts 73°
2026-04-30 13:00 37.90024 -121.58964 17363 ft 398 kts 73°
2026-04-30 13:00 37.90670 -121.55538 17969 ft 402 kts 73°
2026-04-30 13:00 37.91323 -121.52073 18551 ft 406 kts 73°
2026-04-30 13:01 37.91980 -121.48579 19087 ft 410 kts 73°
2026-04-30 13:01 37.92640 -121.45061 19633 ft 413 kts 73°
2026-04-30 13:01 37.93306 -121.41506 20181 ft 416 kts 73°
2026-04-30 13:01 37.93973 -121.37937 20743 ft 418 kts 73°
2026-04-30 13:02 37.94645 -121.34337 21271 ft 421 kts 73°
2026-04-30 13:02 37.95321 -121.30713 21770 ft 425 kts 73°
2026-04-30 13:02 37.96002 -121.27053 22233 ft 429 kts 73°
2026-04-30 13:02 37.96687 -121.23360 22720 ft 432 kts 73°
2026-04-30 13:03 37.97377 -121.19636 23213 ft 435 kts 73°
2026-04-30 13:03 37.98070 -121.15889 23671 ft 438 kts 74°
2026-04-30 13:03 37.98769 -121.12109 24049 ft 442 kts 74°
2026-04-30 13:03 37.99446 -121.08355 24417 ft 445 kts 75°
2026-04-30 13:04 38.00084 -121.04447 24800 ft 448 kts 76°
2026-04-30 13:04 38.00683 -121.00556 25175 ft 451 kts 76°
2026-04-30 13:04 38.01265 -120.96689 25539 ft 454 kts 76°
2026-04-30 13:04 38.01857 -120.92743 25897 ft 457 kts 76°
2026-04-30 13:05 38.02457 -120.88773 26234 ft 461 kts 76°
2026-04-30 13:05 38.03065 -120.84769 26577 ft 463 kts 76°
2026-04-30 13:05 38.03679 -120.80746 26917 ft 466 kts 76°
2026-04-30 13:06 38.04920 -120.72623 27555 ft 471 kts 76°
2026-04-30 13:06 38.05546 -120.68528 27863 ft 474 kts 76°
2026-04-30 13:06 38.06173 -120.64411 28186 ft 476 kts 76°
2026-04-30 13:06 38.06801 -120.60273 28491 ft 479 kts 76°
2026-04-30 13:07 38.07431 -120.56116 28790 ft 482 kts 76°
2026-04-30 13:07 38.08064 -120.51927 29078 ft 484 kts 76°
2026-04-30 13:07 38.08697 -120.47724 29369 ft 487 kts 76°
2026-04-30 13:07 38.09333 -120.43492 29671 ft 489 kts 76°
2026-04-30 13:08 38.09968 -120.39252 30094 ft 488 kts 76°
2026-04-30 13:08 38.10599 -120.35022 30497 ft 487 kts 76°
2026-04-30 13:08 38.11228 -120.30805 30890 ft 485 kts 76°
2026-04-30 13:08 38.11853 -120.26598 31232 ft 485 kts 76°
2026-04-30 13:09 38.12476 -120.22394 31575 ft 485 kts 76°
2026-04-30 13:09 38.13098 -120.18188 31937 ft 484 kts 76°
2026-04-30 13:09 38.13717 -120.13992 32317 ft 482 kts 76°
2026-04-30 13:09 38.14325 -120.09864 32671 ft 482 kts 76°
2026-04-30 13:10 38.14939 -120.05684 32982 ft 482 kts 76°
2026-04-30 13:10 38.15552 -120.01500 33324 ft 481 kts 76°
2026-04-30 13:10 38.16161 -119.97331 33670 ft 480 kts 76°
2026-04-30 13:10 38.16769 -119.93155 34017 ft 480 kts 76°
2026-04-30 13:11 38.17375 -119.88990 34307 ft 479 kts 76°
2026-04-30 13:11 38.17978 -119.84830 34563 ft 479 kts 76°
2026-04-30 13:11 38.18578 -119.80677 34882 ft 477 kts 76°
2026-04-30 13:11 38.18974 -119.77930 35060 ft 477 kts 76°
2026-04-30 13:12 38.19571 -119.73782 35300 ft 477 kts 76°
2026-04-30 13:12 38.20167 -119.69634 35554 ft 477 kts 76°
2026-04-30 13:12 38.20761 -119.65481 35821 ft 477 kts 76°
2026-04-30 13:13 38.21945 -119.57188 36328 ft 476 kts 77°
2026-04-30 13:13 38.22533 -119.53048 36597 ft 476 kts 77°
2026-04-30 13:13 38.23709 -119.44742 36991 ft 478 kts 77°
2026-04-30 13:14 38.24292 -119.40598 37117 ft 477 kts 77°
2026-04-30 13:14 38.26043 -119.28111 37111 ft 477 kts 77°
2026-04-30 13:15 38.27778 -119.15635 37105 ft 478 kts 77°
2026-04-30 13:16 38.28929 -119.07306 37093 ft 478 kts 77°
2026-04-30 13:16 38.30076 -118.98959 37082 ft 479 kts 77°
2026-04-30 13:17 38.31786 -118.86421 37096 ft 480 kts 77°
2026-04-30 13:18 38.33480 -118.73903 37110 ft 481 kts 77°
2026-04-30 13:18 38.35171 -118.61297 37111 ft 482 kts 77°
2026-04-30 13:19 38.36292 -118.52884 37109 ft 482 kts 77°
2026-04-30 13:19 38.37407 -118.44468 37094 ft 482 kts 77°
2026-04-30 13:20 38.38516 -118.36046 37104 ft 482 kts 77°
2026-04-30 13:20 38.39621 -118.27616 37060 ft 482 kts 78°
2026-04-30 13:21 38.40718 -118.19186 37049 ft 482 kts 78°
2026-04-30 13:22 38.42354 -118.06532 37071 ft 483 kts 78°
2026-04-30 13:22 38.43981 -117.93837 37062 ft 484 kts 78°
2026-04-30 13:23 38.45597 -117.81106 37057 ft 485 kts 78°
2026-04-30 13:24 38.47724 -117.64181 37061 ft 485 kts 78°
2026-04-30 13:25 38.49834 -117.47185 37097 ft 485 kts 78°
2026-04-30 13:26 38.52021 -117.25815 37059 ft 490 kts 92°
2026-04-30 13:28 38.50300 -117.04092 37053 ft 493 kts 94°
2026-04-30 13:28 38.49296 -116.91013 37070 ft 494 kts 94°
2026-04-30 13:29 38.47966 -116.73528 37074 ft 496 kts 94°
2026-04-30 13:31 38.46254 -116.51625 37073 ft 498 kts 94°
2026-04-30 13:32 38.44497 -116.29683 37063 ft 498 kts 95°
2026-04-30 13:33 38.43057 -116.12079 37068 ft 500 kts 95°
2026-04-30 13:34 38.41957 -115.98847 37075 ft 500 kts 95°
2026-04-30 13:35 38.40464 -115.81170 37071 ft 502 kts 95°
2026-04-30 13:36 38.38941 -115.63463 37089 ft 503 kts 95°
2026-04-30 13:36 38.37778 -115.50147 37078 ft 505 kts 95°
2026-04-30 13:37 38.36601 -115.36848 37061 ft 506 kts 95°
2026-04-30 13:38 38.35402 -115.23473 37072 ft 507 kts 96°
2026-04-30 13:39 38.33774 -115.05578 37050 ft 509 kts 96°
2026-04-30 13:40 38.32035 -114.92232 37062 ft 510 kts 109°
2026-04-30 13:40 38.29728 -114.83683 37061 ft 511 kts 110°
2026-04-30 13:41 38.27363 -114.75139 37066 ft 512 kts 110°
2026-04-30 13:41 38.25039 -114.66564 37057 ft 513 kts 110°
2026-04-30 13:42 38.22753 -114.58028 37033 ft 513 kts 109°
2026-04-30 13:42 38.19305 -114.45168 37061 ft 512 kts 110°
2026-04-30 13:43 38.16995 -114.36605 37094 ft 512 kts 110°
2026-04-30 13:43 38.14679 -114.28052 37066 ft 512 kts 110°
2026-04-30 13:44 38.12357 -114.19508 37071 ft 511 kts 110°
2026-04-30 13:44 38.10031 -114.10974 37084 ft 512 kts 110°
2026-04-30 13:45 38.06520 -113.98151 37078 ft 513 kts 110°
2026-04-30 13:46 38.04167 -113.89586 37068 ft 515 kts 110°
2026-04-30 13:46 38.01815 -113.81052 37079 ft 517 kts 110°
2026-04-30 13:47 37.99430 -113.72429 37058 ft 519 kts 111°
2026-04-30 13:47 37.97031 -113.63782 37070 ft 521 kts 111°
2026-04-30 13:48 37.94619 -113.55117 37068 ft 522 kts 111°
2026-04-30 13:48 37.92198 -113.46446 37073 ft 522 kts 111°
2026-04-30 13:49 37.89646 -113.37836 37078 ft 522 kts 118°
2026-04-30 13:49 37.85979 -113.29970 37072 ft 518 kts 126°
2026-04-30 13:50 37.82121 -113.22285 37120 ft 517 kts 126°
2026-04-30 13:50 37.76406 -113.10741 37142 ft 516 kts 125°
2026-04-30 13:51 37.72634 -113.03038 37158 ft 516 kts 125°
2026-04-30 13:51 37.68857 -112.95347 37138 ft 515 kts 126°
2026-04-30 13:52 37.65087 -112.87673 37102 ft 513 kts 126°
2026-04-30 13:52 37.61332 -112.80050 37089 ft 511 kts 126°
2026-04-30 13:53 37.57574 -112.72457 37053 ft 510 kts 126°
2026-04-30 13:53 37.53822 -112.64883 37031 ft 508 kts 127°
2026-04-30 13:54 37.50099 -112.57390 37018 ft 508 kts 127°
2026-04-30 13:54 37.46348 -112.49858 37022 ft 507 kts 127°
2026-04-30 13:55 37.42592 -112.42329 37034 ft 508 kts 127°
2026-04-30 13:55 37.38822 -112.34796 36988 ft 509 kts 127°
2026-04-30 13:56 37.35058 -112.27269 37015 ft 509 kts 128°
2026-04-30 13:56 37.31271 -112.19744 37009 ft 510 kts 127°
2026-04-30 13:57 37.27477 -112.12215 37017 ft 511 kts 128°
2026-04-30 13:57 37.23672 -112.04675 36995 ft 512 kts 128°
2026-04-30 13:58 37.17948 -111.93367 36985 ft 512 kts 128°
2026-04-30 13:59 37.14125 -111.85834 36969 ft 513 kts 128°
2026-04-30 13:59 37.10291 -111.78296 36975 ft 513 kts 128°
2026-04-30 14:00 37.06446 -111.70753 36938 ft 514 kts 129°
2026-04-30 14:00 37.00674 -111.59463 36974 ft 513 kts 129°
2026-04-30 14:01 36.98750 -111.55707 37082 ft 514 kts 129°
2026-04-30 14:01 36.96820 -111.51944 37072 ft 514 kts 129°
2026-04-30 14:01 36.92974 -111.44407 37084 ft 515 kts 127°
2026-04-30 14:02 36.89738 -111.36415 37058 ft 521 kts 121°
2026-04-30 14:02 36.87210 -111.29529 37054 ft 521 kts 121°
2026-04-30 14:03 36.84183 -111.21322 37006 ft 519 kts 121°
2026-04-30 14:03 36.80603 -111.11863 36982 ft 519 kts 122°
2026-04-30 14:04 36.77992 -111.05059 36950 ft 519 kts 122°
2026-04-30 14:04 36.74868 -110.96945 36911 ft 519 kts 122°
2026-04-30 14:05 36.71744 -110.88840 36935 ft 519 kts 123°
2026-04-30 14:05 36.68640 -110.80801 36954 ft 519 kts 123°
2026-04-30 14:06 36.63929 -110.68641 36950 ft 520 kts 123°
2026-04-30 14:07 36.59196 -110.56464 36956 ft 521 kts 123°
2026-04-30 14:08 36.54440 -110.44282 36958 ft 523 kts 123°
2026-04-30 14:08 36.49657 -110.32074 36953 ft 524 kts 123°
2026-04-30 14:09 36.46453 -110.23921 36962 ft 525 kts 123°
2026-04-30 14:10 36.41628 -110.11685 36948 ft 526 kts 123°
2026-04-30 14:10 36.38405 -110.03536 36957 ft 526 kts 123°
2026-04-30 14:11 36.35171 -109.95381 36956 ft 527 kts 123°
2026-04-30 14:11 36.31929 -109.87229 36960 ft 527 kts 123°
2026-04-30 14:12 36.28678 -109.79073 36953 ft 528 kts 123°
2026-04-30 14:12 36.25429 -109.70941 36959 ft 527 kts 124°
2026-04-30 14:13 36.22193 -109.62863 36968 ft 527 kts 124°
2026-04-30 14:13 36.18928 -109.54736 36963 ft 527 kts 124°
2026-04-30 14:14 36.15658 -109.46615 36967 ft 528 kts 124°
2026-04-30 14:14 36.12375 -109.38480 36973 ft 529 kts 124°
2026-04-30 14:15 36.09084 -109.30350 36966 ft 529 kts 124°
2026-04-30 14:15 36.05784 -109.22216 36964 ft 529 kts 124°
2026-04-30 14:16 36.02480 -109.14089 36957 ft 529 kts 124°
2026-04-30 14:16 35.99174 -109.05980 36952 ft 529 kts 124°
2026-04-30 14:17 35.95863 -108.97879 36971 ft 529 kts 124°
2026-04-30 14:17 35.92547 -108.89785 36966 ft 528 kts 124°
2026-04-30 14:18 35.89227 -108.81703 36938 ft 528 kts 125°
2026-04-30 14:18 35.84244 -108.69611 36921 ft 527 kts 125°
2026-04-30 14:19 35.79253 -108.57541 36932 ft 527 kts 125°
2026-04-30 14:20 35.75921 -108.49510 36915 ft 526 kts 125°
2026-04-30 14:20 35.70937 -108.37532 36914 ft 527 kts 125°
2026-04-30 14:21 35.67594 -108.29521 36919 ft 527 kts 125°
2026-04-30 14:22 35.62560 -108.17497 36917 ft 527 kts 125°
2026-04-30 14:22 35.57512 -108.05481 36917 ft 527 kts 125°
2026-04-30 14:23 35.50798 -107.89565 36927 ft 527 kts 125°
2026-04-30 14:24 35.45732 -107.77607 36913 ft 526 kts 125°
2026-04-30 14:25 35.38961 -107.61700 36899 ft 526 kts 125°
2026-04-30 14:26 35.33872 -107.49787 36880 ft 526 kts 125°
2026-04-30 14:27 35.28779 -107.37900 36899 ft 525 kts 125°
2026-04-30 14:27 35.25378 -107.29991 36872 ft 525 kts 125°
2026-04-30 14:28 35.20294 -107.18202 36853 ft 525 kts 125°
2026-04-30 14:28 35.16887 -107.10320 36862 ft 524 kts 125°
2026-04-30 14:29 35.10630 -106.95904 36863 ft 525 kts 125°
2026-04-30 14:30 35.04908 -106.82766 37049 ft 525 kts 125°
2026-04-30 14:31 35.01403 -106.74965 37040 ft 523 kts 127°
2026-04-30 14:31 34.95994 -106.63415 37076 ft 523 kts 127°
2026-04-30 14:32 34.90581 -106.51841 37034 ft 524 kts 127°
2026-04-30 14:33 34.86978 -106.44116 36990 ft 525 kts 127°
2026-04-30 14:33 34.81549 -106.32517 36948 ft 526 kts 127°
2026-04-30 14:34 34.77950 -106.24842 36937 ft 526 kts 127°
2026-04-30 14:34 34.74315 -106.17103 36938 ft 527 kts 127°
2026-04-30 14:35 34.68856 -106.05512 36952 ft 526 kts 127°
2026-04-30 14:36 34.65216 -105.97810 36956 ft 525 kts 127°
2026-04-30 14:36 34.61573 -105.90123 36954 ft 525 kts 127°
2026-04-30 14:37 34.57923 -105.82437 36959 ft 526 kts 128°
2026-04-30 14:37 34.54262 -105.74747 36970 ft 527 kts 128°
2026-04-30 14:38 34.50592 -105.67050 36967 ft 527 kts 128°
2026-04-30 14:38 34.46916 -105.59359 36943 ft 528 kts 128°
2026-04-30 14:39 34.43229 -105.51662 36954 ft 529 kts 128°
2026-04-30 14:39 34.39528 -105.43954 36976 ft 530 kts 129°
2026-04-30 14:40 34.33953 -105.32374 36969 ft 531 kts 128°
2026-04-30 14:40 34.30250 -105.24699 36963 ft 532 kts 129°
2026-04-30 14:41 34.26508 -105.16963 36959 ft 533 kts 129°
2026-04-30 14:41 34.22762 -105.09233 36965 ft 534 kts 129°
2026-04-30 14:42 34.18998 -105.01488 36964 ft 535 kts 129°
2026-04-30 14:42 34.15227 -104.93741 36962 ft 536 kts 129°
2026-04-30 14:43 34.11442 -104.85986 36947 ft 536 kts 129°
2026-04-30 14:43 34.07652 -104.78236 36927 ft 536 kts 129°
2026-04-30 14:44 34.03857 -104.70493 36941 ft 536 kts 129°
2026-04-30 14:44 34.00060 -104.62761 36949 ft 536 kts 129°
2026-04-30 14:45 33.96259 -104.55040 36946 ft 536 kts 129°
2026-04-30 14:45 33.92453 -104.47323 36943 ft 535 kts 129°
2026-04-30 14:46 33.88673 -104.39679 36937 ft 535 kts 129°
2026-04-30 14:46 33.85487 -104.33243 36937 ft 533 kts 129°
2026-04-30 14:47 33.81069 -104.24344 36942 ft 533 kts 129°
2026-04-30 14:47 33.77264 -104.16698 36940 ft 533 kts 129°
2026-04-30 14:48 33.73456 -104.09062 36945 ft 532 kts 129°
2026-04-30 14:48 33.69648 -104.01441 36952 ft 532 kts 129°
2026-04-30 14:49 33.65837 -103.93830 36944 ft 531 kts 129°
2026-04-30 14:49 33.62029 -103.86238 36952 ft 531 kts 129°
2026-04-30 14:50 33.56306 -103.74866 36965 ft 531 kts 129°
2026-04-30 14:51 33.50579 -103.63517 36965 ft 530 kts 129°
2026-04-30 14:52 33.44840 -103.52182 36936 ft 529 kts 128°
2026-04-30 14:52 33.39109 -103.40895 36960 ft 528 kts 128°
2026-04-30 14:53 33.33379 -103.29646 36967 ft 527 kts 129°
2026-04-30 14:54 33.25760 -103.14745 36976 ft 527 kts 129°
2026-04-30 14:55 33.20028 -103.03572 36968 ft 525 kts 128°
2026-04-30 14:56 33.12378 -102.88717 36978 ft 525 kts 129°
2026-04-30 14:57 33.07275 -102.78839 36975 ft 525 kts 129°
2026-04-30 14:58 32.99597 -102.64026 36992 ft 525 kts 128°
2026-04-30 14:58 32.93834 -102.52948 37015 ft 524 kts 128°
2026-04-30 15:00 32.84211 -102.34522 37011 ft 524 kts 128°
2026-04-30 15:01 32.76497 -102.19818 36992 ft 524 kts 129°
2026-04-30 15:01 32.70696 -102.08798 37044 ft 524 kts 129°
2026-04-30 15:02 32.66826 -102.01465 37056 ft 524 kts 129°
2026-04-30 15:03 32.57122 -101.83139 37021 ft 524 kts 129°
2026-04-30 15:04 32.47422 -101.64910 36997 ft 525 kts 130°
2026-04-30 15:06 32.37540 -101.46760 36979 ft 518 kts 138°
2026-04-30 15:07 32.28026 -101.34222 37043 ft 511 kts 141°
2026-04-30 15:08 32.18506 -101.21693 36986 ft 513 kts 140°
2026-04-30 15:09 32.06639 -101.05968 36968 ft 512 kts 140°
2026-04-30 15:10 31.97196 -100.93520 36974 ft 510 kts 140°
2026-04-30 15:11 31.83022 -100.74914 36969 ft 507 kts 140°
2026-04-30 15:13 31.71251 -100.59533 36971 ft 505 kts 140°
2026-04-30 15:14 31.54827 -100.38180 36993 ft 507 kts 140°
2026-04-30 15:17 31.33813 -100.11018 36954 ft 503 kts 139°
2026-04-30 15:18 31.25406 -99.92594 36958 ft 520 kts 119°
2026-04-30 15:19 31.20938 -99.81126 36973 ft 518 kts 120°